Regional Weather Roundup
Issued by NWS Cleveland, OH

Home | Current Version | Previous Version | Text Only | Print | Product List | Glossary Off
Versions: 1 2 3 4 5 6 7 8 9 10 11 12 13 14 15 16 17 18 19 20 21 22 23 24 25 26 27 28 29 30 31 32 33 34 35 36 37 38 39 40 41 42 43 44 45 46 47 48 49 50

000
ASUS41 KCLE 260710
RWRCLE
OHIO REGIONAL WEATHER ROUNDUP
NATIONAL WEATHER SERVICE WILMINGTON, OH
300 AM EDT MON SEP 26 2016

NOTE: "FAIR" INDICATES FEW OR NO CLOUDS BELOW 12,000 FEET WITH NO
SIGNIFICANT WEATHER AND/OR OBSTRUCTIONS TO VISIBILITY.

OHZ001>008-015>018-024>027-034-035-043-044-260800-
   NORTHWEST OHIO

CITY           SKY/WX    TMP DP  RH WIND       PRES   REMARKS
DEFIANCE       MOCLDY    68  63  84 SE5       29.92F
FINDLAY        FAIR      70  49  47 S12       29.94F
TOLEDO EXPRESS LGT RAIN  62  59  90 S5        29.93F
TOLEDO EXEC    CLOUDY    69  52  54 S10       29.93F
LIMA           FAIR      68  58  70 S7        29.95F
$$

OHZ009>014-019>023-028>033-038-089-260800-
   NORTHEAST OHIO

CITY           SKY/WX    TMP DP  RH WIND       PRES   REMARKS
CLE-HOPKINS    MOCLDY    64  46  52 S13       30.02F
CLE-LAKEFRONT  FAIR      64  46  52 SE15      29.98F
CUY CO. ARPT   NOT AVBL
LORAIN-ELYRIA  FAIR      60  46  59 S7        29.99F
ASHTABULA      FAIR      56  48  74 SE8       30.04F
AKRON-CANTON   FAIR      60  46  59 SE8       30.03F
WOOSTER        FAIR      55  48  77 SE3       30.03F
MANSFIELD      FAIR      63  48  58 S9        30.01F
YOUNGSTOWN     MOCLDY    56  46  69 SE8       30.04F
$$

OHZ042-051>053-060>062-070>072-077>081-260800-
  SOUTHWEST OHIO

CITY           SKY/WX    TMP DP  RH WIND       PRES   REMARKS
CINC-COVINGTON FAIR      69  64  84 S6        29.98F
CINC-LUNKEN    FOG       63  63 100 CALM      29.98F VSB 1/4
HAMILTON       FAIR      64  62  93 CALM      29.98F FOG
DAYTON         FAIR      68  63  84 S7        29.98F
WRIGHT-PAT AFB CLEAR     67  63  87 SE3       29.97F
DAYTON GENERAL FAIR      68  62  81 S7        29.98F
WILMINGTON     FAIR      67  62  84 S5        30.00F
$$

OHZ036-037-039>041-045>050-054>059-063>069-073>076-082>088-260800-
  CENTRAL AND SOUTHEAST OHIO

CITY           SKY/WX    TMP DP  RH WIND       PRES   REMARKS
COLUMBUS       FAIR      64  50  60 SE5       29.99F
OSU AIRPORT    FAIR      65  51  60 SE3       30.00F
BOLTON FIELD   FAIR      60  54  79 CALM      30.00F
RICKENBACK AFB FAIR      59  53  79 CALM      30.00F
NEWARK         FAIR      54  53  97 CALM      30.01F
MARION         FAIR      63  48  58 S9        29.99F
LANCASTER      FAIR      57  54  89 CALM      30.01F
ZANESVILLE     FAIR      57  51  80 CALM      30.02F
NEW PHILLY     FAIR      55  51  86 CALM      30.04F
$$



USA.gov is the U.S. government's official web portal to all federal, state and local government web resources and services.